Regional Weather Roundup
Issued by NWS

Home | Current Version | Previous Version | Text Only | Print | Product List | Glossary Off
Versions: 1 2 3 4 5 6 7 8 9 10 11 12 13 14 15 16 17 18 19 20 21 22 23 24 25 26 27 28 29 30 31 32 33 34 35 36 37 38 39 40 41 42 43 44 45 46 47 48 49 50

000
ASUS43 KTOP 271459
RWRKS

WEATHER ROUNDUP FOR KANSAS
NATIONAL WEATHER SERVICE GOODLAND KS
1000 AM CDT WED AUG 27 2014

NOTE:  "FAIR" INDICATES FEW OR NO CLOUDS BELOW 12,000 FEET WITH NO
SIGNIFICANT WEATHER AND/OR OBSTRUCTIONS TO VISIBILITY.

KSZ001>006-013>018-027>032-041>047-271600-
NORTHWEST KANSAS

CITY           SKY/WX    TMP DP  RH WIND       PRES   REMARKS
GOODLAND       CLOUDY    67  64  90 S15       30.15S
HAYS           CLOUDY    72  63  73 W9        30.12F
HILL CITY      CLOUDY    73  67  81 S3        30.13S
RUSSELL        CLOUDY    75  64  68 SW9       30.10F
$$

KSZ061>065-074>080-084>089-271600-
SOUTHWEST KANSAS

CITY           SKY/WX    TMP DP  RH WIND       PRES   REMARKS
DODGE CITY     PTSUNNY   70  66  87 S9        30.12F
ELKHART          N/A     68  63  84 S9          N/A
GARDEN CITY    PTSUNNY   71  65  81 S15G23    30.12F
GREAT BEND     CLOUDY    72  64  78 W8        30.10F
LIBERAL        PTSUNNY   72  64  78 S10       30.15R
$$

KSZ066>073-081>083-090>101-271600-
SOUTHEAST KANSAS

CITY           SKY/WX    TMP DP  RH WIND       PRES   REMARKS
CHANUTE        SUNNY     85  69  58 W9        30.13R
COFFEYVILLE    SUNNY     85  70  60 W8        30.11F
HUTCHINSON     CLOUDY    77  64  64 CALM      30.13S
NEWTON         PTSUNNY   82  63  51 NW7       30.16F
PARSONS        SUNNY     86  69  56 SW10      30.13S
WICHITA INTL   CLOUDY    80  64  58 W6        30.12S
WICHITA JABRA  PTSUNNY   82  63  52 NW7       30.12F
WINFIELD       MOSUNNY   84  69  60 NW5       30.13S
$$

KSZ007>012-019>026-033>040-048>060-102>105-271600-
NORTHEAST KANSAS

CITY           SKY/WX    TMP DP  RH WIND       PRES   REMARKS
CONCORDIA      PTSUNNY   74  70  87 CALM      30.11R
EMPORIA        MOSUNNY   85  68  56 VRB7      30.12R
LAWRENCE       PTSUNNY   80  69  69 VRB3      30.13R
MANHATTAN      MOSUNNY   80  71  74 SE6       30.11R
OLATHE IND     MOSUNNY   82  70  66 NE8       30.13S
OLATHE EXE     MOSUNNY   81  71  71 NE8       30.12R
SALINA         MOSUNNY   84  66  54 SW13      30.10F
TOPEKA BILLARD PTSUNNY   79  73  82 E7        30.13R
TOPEKA FORBES  PTSUNNY   78  68  71 E8        30.13R
$$


USA.gov is the U.S. government's official web portal to all federal, state and local government web resources and services.